QPF
0.00 0.00 0.00 0.02 0.09 0.10 0.05 0.03 0.02 0.01 0.01 0.01 0.00 0.01 0.02 0.03 0.07 0.10 0.08 0.06 0.05 0.05 0.05 0.06 0.05 0.04 0.04 0.04 0.05 0.06 0.06 0.07 0.10 0.13 0.20 0.19 0.18 0.20 0.24 0.25 0.23 0.25 0.23 0.22 0.24 0.29 0.35 0.34 0.23
0.00 0.00 0.01 0.05 0.10 0.09 0.04 0.01 0.01 0.02 0.01 0.00 0.00 0.01 0.01 0.02 0.03 0.05 0.04 0.04 0.03 0.03 0.04 0.04 0.04 0.04 0.04 0.04 0.04 0.06 0.06 0.07 0.09 0.15 0.20 0.19 0.17 0.18 0.25 0.25 0.24 0.26 0.24 0.25 0.26 0.27 0.26 0.21 0.16
0.00 0.00 0.02 0.08 0.06 0.05 0.04 0.01 0.01 0.01 0.00 0.00 0.00 0.01 0.02 0.03 0.03 0.05 0.04 0.03 0.03 0.03 0.03 0.02 0.04 0.03 0.04 0.04 0.04 0.04 0.05 0.07 0.09 0.16 0.22 0.20 0.18 0.21 0.25 0.25 0.23 0.25 0.22 0.20 0.20 0.20 0.19 0.16 0.13
0.00 0.02 0.03 0.08 0.03 0.00 0.00 0.00 0.00 0.00 0.00 0.00 0.01 0.03 0.05 0.04 0.04 0.06 0.03 0.02 0.02 0.03 0.03 0.01 0.03 0.02 0.02 0.02 0.03 0.04 0.05 0.07 0.09 0.13 0.19 0.22 0.21 0.24 0.27 0.27 0.24 0.22 0.19 0.18 0.19 0.18 0.16 0.11 0.11
0.02 0.07 0.06 0.03 0.01 0.00 0.00 0.00 0.00 0.00 0.01 0.01 0.01 0.04 0.06 0.06 0.05 0.06 0.04 0.03 0.03 0.03 0.02 0.02 0.03 0.03 0.03 0.04 0.10 0.13 0.13 0.13 0.11 0.12 0.16 0.19 0.22 0.22 0.24 0.22 0.21 0.20 0.19 0.19 0.15 0.14 0.11 0.09 0.10
0.07 0.07 0.04 0.03 0.00 0.00 0.00 0.00 0.00 0.00 0.00 0.00 0.01 0.04 0.07 0.08 0.06 0.05 0.03 0.03 0.03 0.03 0.03 0.02 0.02 0.02 0.04 0.10 0.16 0.17 0.12 0.10 0.10 0.10 0.11 0.12 0.13 0.15 0.15 0.15 0.17 0.19 0.19 0.15 0.10 0.09 0.08 0.09 0.09
0.04 0.04 0.02 0.00 0.00 0.00 0.00 0.00 0.01 0.02 0.02 0.01 0.01 0.05 0.09 0.08 0.04 0.03 0.02 0.03 0.03 0.04 0.04 0.03 0.02 0.02 0.05 0.12 0.17 0.18 0.09 0.07 0.09 0.10 0.10 0.09 0.08 0.09 0.10 0.10 0.12 0.14 0.14 0.08 0.05 0.05 0.05 0.04 0.05
0.01 0.01 0.01 0.00 0.00 0.00 0.00 0.00 0.00 0.01 0.02 0.01 0.01 0.05 0.08 0.07 0.02 0.01 0.03 0.03 0.04 0.03 0.03 0.03 0.02 0.02 0.04 0.11 0.19 0.25 0.17 0.10 0.10 0.12 0.11 0.09 0.08 0.09 0.09 0.09 0.11 0.12 0.07 0.05 0.05 0.04 0.03 0.02 0.02
0.00 0.01 0.03 0.01 0.00 0.00 0.01 0.00 0.00 0.00 0.01 0.01 0.01 0.03 0.04 0.02 0.01 0.02 0.04 0.05 0.05 0.04 0.03 0.03 0.02 0.03 0.05 0.14 0.21 0.22 0.23 0.22 0.18 0.15 0.13 0.13 0.12 0.10 0.09 0.08 0.09 0.09 0.07 0.04 0.03 0.02 0.02 0.02 0.03
0.01 0.03 0.08 0.02 0.00 0.00 0.00 0.00 0.00 0.01 0.03 0.04 0.03 0.03 0.03 0.03 0.02 0.02 0.04 0.05 0.05 0.05 0.03 0.03 0.02 0.03 0.06 0.10 0.12 0.11 0.16 0.22 0.23 0.20 0.17 0.17 0.13 0.12 0.08 0.10 0.10 0.07 0.06 0.05 0.05 0.04 0.04 0.05 0.06
0.01 0.02 0.03 0.00 0.00 0.00 0.00 0.00 0.00 0.01 0.01 0.02 0.03 0.03 0.03 0.03 0.02 0.02 0.03 0.05 0.04 0.02 0.02 0.03 0.04 0.04 0.05 0.06 0.06 0.08 0.11 0.13 0.16 0.18 0.18 0.17 0.15 0.14 0.12 0.12 0.10 0.08 0.07 0.06 0.06 0.07 0.05 0.06 0.07
0.00 0.00 0.00 0.00 0.00 0.00 0.00 0.00 0.00 0.00 0.00 0.01 0.01 0.01 0.03 0.02 0.02 0.02 0.03 0.03 0.02 0.02 0.02 0.04 0.05 0.04 0.04 0.04 0.05 0.05 0.07 0.10 0.12 0.12 0.11 0.12 0.15 0.15 0.15 0.12 0.08 0.07 0.05 0.07 0.07 0.06 0.06 0.06 0.07
0.00 0.00 0.00 0.00 0.00 0.00 0.00 0.00 0.00 0.00 0.00 0.00 0.00 0.00 0.02 0.02 0.02 0.02 0.01 0.00 0.01 0.02 0.02 0.03 0.04 0.04 0.04 0.04 0.05 0.05 0.05 0.05 0.07 0.08 0.08 0.09 0.10 0.13 0.13 0.10 0.08 0.05 0.04 0.04 0.06 0.05 0.07 0.08 0.07
0.00 0.00 0.00 0.00 0.00 0.00 0.00 0.00 0.00 0.00 0.00 0.00 0.00 0.00 0.01 0.01 0.01 0.01 0.01 0.01 0.01 0.02 0.02 0.02 0.02 0.04 0.05 0.05 0.07 0.06 0.06 0.05 0.05 0.05 0.05 0.07 0.10 0.13 0.10 0.07 0.05 0.05 0.04 0.02 0.04 0.06 0.09 0.11 0.09
0.00 0.00 0.00 0.00 0.00 0.00 0.00 0.01 0.02 0.00 0.00 0.00 0.00 0.00 0.00 0.00 0.00 0.01 0.02 0.02 0.01 0.02 0.02 0.02 0.02 0.02 0.03 0.05 0.05 0.05 0.06 0.06 0.07 0.06 0.06 0.07 0.10 0.10 0.08 0.05 0.05 0.04 0.03 0.03 0.04 0.07 0.11 0.13 0.12
0.01 0.03 0.03 0.01 0.00 0.00 0.01 0.03 0.03 0.00 0.00 0.00 0.00 0.00 0.00 0.00 0.00 0.01 0.01 0.01 0.03 0.04 0.03 0.02 0.02 0.01 0.02 0.03 0.05 0.04 0.05 0.06 0.07 0.05 0.06 0.05 0.07 0.09 0.08 0.05 0.05 0.05 0.05 0.06 0.07 0.08 0.11 0.12 0.11
0.02 0.02 0.02 0.01 0.00 0.00 0.00 0.01 0.01 0.00 0.00 0.00 0.00 0.00 0.00 0.00 0.00 0.00 0.00 0.01 0.02 0.03 0.03 0.04 0.03 0.03 0.03 0.02 0.03 0.04 0.04 0.06 0.06 0.05 0.05 0.05 0.06 0.10 0.09 0.07 0.07 0.06 0.06 0.07 0.07 0.06 0.08 0.10 0.11
0.01 0.01 0.01 0.01 0.00 0.00 0.00 0.00 0.00 0.00 0.00 0.00 0.00 0.00 0.00 0.00 0.00 0.00 0.00 0.01 0.01 0.02 0.03 0.03 0.04 0.05 0.04 0.03 0.03 0.04 0.04 0.04 0.05 0.04 0.05 0.05 0.06 0.06 0.08 0.08 0.08 0.07 0.07 0.07 0.07 0.08 0.09 0.09 0.09
0.01 0.00 0.01 0.01 0.00 0.00 0.00 0.00 0.00 0.00 0.00 0.00 0.00 0.00 0.00 0.00 0.01 0.00 0.00 0.00 0.01 0.02 0.03 0.04 0.05 0.06 0.05 0.03 0.03 0.04 0.05 0.04 0.03 0.03 0.03 0.03 0.04 0.04 0.06 0.08 0.09 0.08 0.09 0.10 0.09 0.09 0.10 0.11 0.09
0.01 0.01 0.01 0.01 0.00 0.00 0.00 0.00 0.00 0.00 0.00 0.00 0.00 0.00 0.00 0.00 0.01 0.00 0.00 0.01 0.01 0.01 0.02 0.04 0.04 0.04 0.03 0.03 0.03 0.04 0.05 0.05 0.04 0.05 0.05 0.04 0.04 0.05 0.07 0.08 0.07 0.08 0.10 0.11 0.12 0.12 0.11 0.12 0.11
0.00 0.00 0.00 0.00 0.00 0.00 0.00 0.01 0.01 0.01 0.00 0.00 0.00 0.00 0.00 0.00 0.00 0.00 0.00 0.00 0.01 0.01 0.02 0.02 0.03 0.03 0.03 0.03 0.03 0.03 0.05 0.04 0.05 0.06 0.07 0.06 0.05 0.05 0.06 0.06 0.05 0.08 0.09 0.12 0.13 0.12 0.11 0.13 0.13
0.00 0.00 0.00 0.00 0.00 0.01 0.01 0.05 0.03 0.01 0.00 0.00 0.00 0.00 0.00 0.00 0.00 0.00 0.00 0.00 0.00 0.01 0.01 0.01 0.02 0.03 0.03 0.02 0.03 0.03 0.03 0.03 0.04 0.05 0.07 0.07 0.04 0.04 0.05 0.05 0.07 0.09 0.10 0.12 0.12 0.12 0.12 0.14 0.13
0.00 0.00 0.00 0.01 0.01 0.03 0.02 0.05 0.06 0.03 0.01 0.00 0.00 0.00 0.00 0.00 0.00 0.00 0.00 0.00 0.00 0.00 0.01 0.02 0.02 0.03 0.03 0.02 0.02 0.03 0.04 0.04 0.05 0.05 0.07 0.07 0.06 0.05 0.04 0.06 0.07 0.07 0.07 0.07 0.09 0.11 0.12 0.13 0.13
0.00 0.00 0.01 0.02 0.02 0.04 0.04 0.08 0.12 0.03 0.02 0.01 0.00 0.00 0.00 0.00 0.00 0.00 0.00 0.00 0.00 0.00 0.01 0.02 0.03 0.03 0.03 0.02 0.03 0.03 0.04 0.05 0.06 0.07 0.08 0.07 0.07 0.07 0.06 0.05 0.06 0.05 0.06 0.05 0.06 0.07 0.09 0.09 0.09
0.00 0.00 0.01 0.03 0.02 0.02 0.02 0.02 0.03 0.01 0.00 0.00 0.01 0.00 0.00 0.00 0.00 0.00 0.00 0.00 0.00 0.00 0.00 0.02 0.03 0.03 0.03 0.02 0.03 0.03 0.04 0.05 0.05 0.05 0.07 0.06 0.05 0.07 0.08 0.08 0.07 0.07 0.06 0.06 0.06 0.07 0.08 0.08 0.07
0.01 0.01 0.01 0.03 0.06 0.02 0.01 0.02 0.01 0.00 0.00 0.00 0.00 0.00 0.00 0.00 0.00 0.00 0.01 0.01 0.00 0.00 0.01 0.01 0.01 0.01 0.02 0.03 0.03 0.03 0.03 0.04 0.04 0.05 0.06 0.05 0.06 0.08 0.09 0.07 0.06 0.07 0.06 0.06 0.08 0.07 0.06 0.06 0.05
0.00 0.00 0.00 0.01 0.04 0.03 0.02 0.01 0.00 0.00 0.00 0.00 0.00 0.00 0.00 0.00 0.00 0.00 0.00 0.00 0.00 0.01 0.01 0.01 0.01 0.01 0.01 0.02 0.03 0.03 0.03 0.04 0.04 0.05 0.06 0.05 0.06 0.06 0.07 0.05 0.05 0.05 0.07 0.10 0.10 0.09 0.07 0.06 0.06
0.00 0.00 0.00 0.01 0.02 0.03 0.03 0.02 0.01 0.00 0.00 0.00 0.00 0.00 0.00 0.00 0.00 0.00 0.00 0.00 0.00 0.00 0.00 0.00 0.01 0.01 0.01 0.01 0.03 0.03 0.04 0.04 0.04 0.04 0.03 0.04 0.05 0.04 0.05 0.05 0.04 0.04 0.05 0.06 0.07 0.06 0.06 0.06 0.07
0.00 0.00 0.00 0.01 0.01 0.02 0.04 0.03 0.01 0.00 0.00 0.00 0.00 0.00 0.00 0.00 0.01 0.00 0.00 0.00 0.00 0.00 0.00 0.00 0.00 0.01 0.01 0.02 0.02 0.02 0.02 0.02 0.03 0.02 0.03 0.04 0.05 0.03 0.03 0.04 0.04 0.04 0.04 0.05 0.05 0.05 0.06 0.04 0.06
0.00 0.00 0.00 0.00 0.00 0.00 0.02 0.02 0.00 0.00 0.00 0.00 0.00 0.00 0.00 0.01 0.01 0.01 0.00 0.00 0.00 0.00 0.00 0.00 0.01 0.01 0.01 0.01 0.02 0.02 0.02 0.03 0.02 0.02 0.03 0.03 0.03 0.04 0.03 0.04 0.04 0.04 0.05 0.05 0.05 0.05 0.06 0.06 0.06
MSLP
1002.84 1003.56 1004.44 1005.34 1006.12 1006.69 1007.00 1007.07 1006.97 1006.82 1006.70 1006.68 1006.79 1006.98 1007.20 1007.35 1007.39 1007.29 1007.06 1006.77 1006.51 1006.34 1006.29 1006.38 1006.54 1006.71 1006.80 1006.76 1006.57 1006.26 1005.91 1005.60 1005.40 1005.38 1005.52 1005.80 1006.16 1006.54 1006.88 1007.17 1007.41 1007.66 1007.95 1008.32 1008.78 1009.32 1009.88 1010.40 1010.84
1003.04 1003.88 1004.81 1005.70 1006.41 1006.86 1007.03 1006.96 1006.74 1006.49 1006.29 1006.23 1006.29 1006.46 1006.65 1006.79 1006.83 1006.74 1006.57 1006.38 1006.23 1006.20 1006.32 1006.56 1006.88 1007.18 1007.38 1007.43 1007.32 1007.08 1006.78 1006.51 1006.35 1006.34 1006.47 1006.72 1007.03 1007.34 1007.60 1007.82 1008.02 1008.23 1008.50 1008.87 1009.33 1009.86 1010.39 1010.88 1011.27
1003.35 1004.28 1005.24 1006.08 1006.70 1007.02 1007.05 1006.86 1006.53 1006.19 1005.95 1005.85 1005.88 1006.02 1006.18 1006.30 1006.31 1006.23 1006.08 1005.94 1005.89 1005.98 1006.23 1006.61 1007.07 1007.50 1007.83 1007.99 1007.98 1007.84 1007.63 1007.43 1007.31 1007.32 1007.45 1007.67 1007.92 1008.16 1008.36 1008.51 1008.67 1008.86 1009.12 1009.49 1009.95 1010.46 1010.96 1011.39 1011.71
1003.70 1004.68 1005.63 1006.41 1006.93 1007.13 1007.05 1006.75 1006.36 1005.99 1005.72 1005.61 1005.63 1005.75 1005.88 1005.96 1005.94 1005.83 1005.68 1005.56 1005.56 1005.73 1006.08 1006.58 1007.15 1007.70 1008.14 1008.42 1008.53 1008.50 1008.40 1008.29 1008.24 1008.28 1008.41 1008.60 1008.81 1008.99 1009.14 1009.25 1009.38 1009.55 1009.82 1010.19 1010.64 1011.12 1011.58 1011.94 1012.18
1003.99 1004.99 1005.90 1006.60 1007.02 1007.13 1006.97 1006.62 1006.21 1005.85 1005.61 1005.52 1005.56 1005.67 1005.78 1005.82 1005.75 1005.60 1005.43 1005.31 1005.33 1005.54 1005.94 1006.51 1007.16 1007.80 1008.34 1008.73 1008.95 1009.03 1009.03 1009.02 1009.05 1009.14 1009.29 1009.47 1009.64 1009.79 1009.90 1009.99 1010.11 1010.29 1010.56 1010.93 1011.36 1011.81 1012.21 1012.50 1012.64
1004.18 1005.13 1005.96 1006.57 1006.90 1006.95 1006.75 1006.42 1006.05 1005.74 1005.57 1005.54 1005.63 1005.76 1005.85 1005.86 1005.76 1005.57 1005.36 1005.23 1005.24 1005.46 1005.88 1006.47 1007.16 1007.85 1008.44 1008.90 1009.21 1009.39 1009.49 1009.57 1009.67 1009.81 1009.99 1010.18 1010.35 1010.48 1010.59 1010.68 1010.80 1010.99 1011.27 1011.64 1012.05 1012.46 1012.78 1012.98 1013.04
1004.21 1005.07 1005.79 1006.30 1006.56 1006.57 1006.38 1006.10 1005.81 1005.61 1005.55 1005.61 1005.76 1005.92 1006.03 1006.03 1005.90 1005.69 1005.47 1005.31 1005.31 1005.52 1005.93 1006.51 1007.19 1007.87 1008.48 1008.97 1009.32 1009.56 1009.73 1009.88 1010.05 1010.24 1010.46 1010.67 1010.86 1011.01 1011.12 1011.23 1011.37 1011.57 1011.86 1012.22 1012.60 1012.95 1013.21 1013.32 1013.29
1004.10 1004.83 1005.43 1005.83 1006.03 1006.02 1005.87 1005.67 1005.50 1005.42 1005.48 1005.65 1005.87 1006.09 1006.22 1006.23 1006.11 1005.90 1005.68 1005.53 1005.53 1005.71 1006.10 1006.64 1007.27 1007.91 1008.48 1008.95 1009.31 1009.57 1009.78 1009.98 1010.19 1010.44 1010.69 1010.94 1011.16 1011.33 1011.47 1011.60 1011.76 1011.98 1012.26 1012.60 1012.94 1013.23 1013.42 1013.47 1013.37
1003.90 1004.48 1004.94 1005.25 1005.39 1005.39 1005.29 1005.18 1005.13 1005.18 1005.35 1005.62 1005.92 1006.18 1006.36 1006.40 1006.31 1006.14 1005.95 1005.82 1005.83 1006.00 1006.35 1006.84 1007.41 1007.97 1008.47 1008.89 1009.21 1009.46 1009.68 1009.90 1010.15 1010.43 1010.72 1011.01 1011.26 1011.46 1011.63 1011.78 1011.96 1012.17 1012.44 1012.75 1013.05 1013.29 1013.41 1013.41 1013.27
1003.68 1004.11 1004.45 1004.67 1004.76 1004.77 1004.73 1004.70 1004.75 1004.91 1005.17 1005.51 1005.87 1006.18 1006.40 1006.49 1006.45 1006.33 1006.20 1006.12 1006.16 1006.34 1006.66 1007.10 1007.58 1008.06 1008.48 1008.82 1009.08 1009.30 1009.51 1009.73 1010.00 1010.30 1010.62 1010.94 1011.22 1011.45 1011.63 1011.80 1011.98 1012.18 1012.43 1012.70 1012.95 1013.14 1013.22 1013.18 1013.02
1003.53 1003.83 1004.06 1004.20 1004.26 1004.27 1004.27 1004.31 1004.43 1004.65 1004.96 1005.34 1005.73 1006.07 1006.32 1006.46 1006.49 1006.45 1006.39 1006.38 1006.47 1006.66 1006.98 1007.36 1007.78 1008.17 1008.51 1008.78 1008.99 1009.16 1009.34 1009.56 1009.83 1010.14 1010.48 1010.81 1011.10 1011.35 1011.54 1011.71 1011.88 1012.06 1012.28 1012.50 1012.71 1012.87 1012.93 1012.87 1012.72
1003.51 1003.71 1003.85 1003.92 1003.95 1003.95 1003.97 1004.04 1004.19 1004.44 1004.76 1005.14 1005.53 1005.88 1006.15 1006.34 1006.43 1006.47 1006.50 1006.57 1006.71 1006.95 1007.26 1007.62 1007.98 1008.32 1008.59 1008.80 1008.96 1009.10 1009.26 1009.46 1009.72 1010.03 1010.36 1010.69 1010.98 1011.22 1011.41 1011.57 1011.72 1011.88 1012.06 1012.25 1012.43 1012.57 1012.63 1012.59 1012.45
1003.65 1003.78 1003.85 1003.87 1003.86 1003.85 1003.87 1003.93 1004.07 1004.29 1004.58 1004.93 1005.28 1005.62 1005.91 1006.13 1006.29 1006.41 1006.53 1006.68 1006.88 1007.15 1007.48 1007.83 1008.18 1008.48 1008.72 1008.89 1009.03 1009.15 1009.28 1009.47 1009.71 1009.99 1010.30 1010.61 1010.88 1011.10 1011.28 1011.41 1011.54 1011.68 1011.84 1012.02 1012.19 1012.33 1012.40 1012.39 1012.30
1003.97 1004.04 1004.05 1004.03 1003.98 1003.94 1003.92 1003.95 1004.04 1004.20 1004.42 1004.71 1005.01 1005.32 1005.61 1005.86 1006.08 1006.28 1006.48 1006.70 1006.97 1007.28 1007.63 1007.99 1008.33 1008.63 1008.86 1009.04 1009.17 1009.28 1009.41 1009.57 1009.78 1010.02 1010.29 1010.55 1010.78 1010.98 1011.13 1011.25 1011.37 1011.50 1011.66 1011.84 1012.03 1012.19 1012.31 1012.34 1012.29
1004.40 1004.42 1004.39 1004.32 1004.24 1004.16 1004.09 1004.05 1004.06 1004.13 1004.27 1004.47 1004.72 1005.00 1005.28 1005.57 1005.83 1006.10 1006.37 1006.65 1006.97 1007.32 1007.69 1008.07 1008.43 1008.74 1009.00 1009.19 1009.34 1009.46 1009.58 1009.71 1009.88 1010.07 1010.27 1010.47 1010.66 1010.81 1010.94 1011.06 1011.18 1011.33 1011.51 1011.73 1011.95 1012.17 1012.33 1012.42 1012.41
1004.88 1004.86 1004.79 1004.69 1004.56 1004.43 1004.29 1004.17 1004.09 1004.05 1004.09 1004.21 1004.39 1004.64 1004.93 1005.23 1005.55 1005.88 1006.20 1006.54 1006.90 1007.28 1007.67 1008.07 1008.45 1008.79 1009.08 1009.31 1009.49 1009.62 1009.73 1009.84 1009.95 1010.07 1010.20 1010.33 1010.46 1010.58 1010.70 1010.82 1010.97 1011.15 1011.38 1011.64 1011.93 1012.20 1012.42 1012.57 1012.61
1005.33 1005.28 1005.18 1005.06 1004.90 1004.71 1004.51 1004.30 1004.10 1003.96 1003.89 1003.91 1004.03 1004.25 1004.53 1004.87 1005.24 1005.61 1005.99 1006.37 1006.75 1007.15 1007.56 1007.97 1008.37 1008.75 1009.08 1009.36 1009.57 1009.72 1009.82 1009.89 1009.94 1009.99 1010.04 1010.11 1010.18 1010.27 1010.39 1010.53 1010.71 1010.94 1011.23 1011.55 1011.90 1012.24 1012.52 1012.72 1012.81
1005.70 1005.62 1005.52 1005.39 1005.22 1005.00 1004.73 1004.43 1004.13 1003.86 1003.67 1003.60 1003.65 1003.83 1004.12 1004.48 1004.89 1005.31 1005.73 1006.14 1006.54 1006.94 1007.36 1007.78 1008.21 1008.62 1008.99 1009.31 1009.55 1009.72 1009.82 1009.86 1009.86 1009.84 1009.82 1009.82 1009.85 1009.92 1010.03 1010.20 1010.42 1010.71 1011.05 1011.43 1011.84 1012.22 1012.56 1012.81 1012.94
1005.92 1005.87 1005.80 1005.70 1005.54 1005.31 1004.99 1004.61 1004.19 1003.80 1003.49 1003.31 1003.28 1003.42 1003.70 1004.08 1004.52 1004.98 1005.43 1005.87 1006.28 1006.69 1007.10 1007.53 1007.97 1008.41 1008.82 1009.18 1009.47 1009.66 1009.76 1009.78 1009.74 1009.67 1009.59 1009.54 1009.53 1009.58 1009.70 1009.89 1010.15 1010.48 1010.86 1011.28 1011.72 1012.14 1012.51 1012.80 1012.96
1006.01 1006.01 1006.02 1006.00 1005.90 1005.68 1005.34 1004.88 1004.36 1003.84 1003.40 1003.10 1002.98 1003.07 1003.32 1003.71 1004.18 1004.68 1005.16 1005.61 1006.03 1006.43 1006.84 1007.27 1007.73 1008.19 1008.64 1009.04 1009.37 1009.60 1009.72 1009.73 1009.67 1009.56 1009.44 1009.35 1009.32 1009.36 1009.48 1009.68 1009.96 1010.30 1010.70 1011.12 1011.56 1011.98 1012.37 1012.67 1012.87
1005.98 1006.09 1006.23 1006.32 1006.32 1006.15 1005.80 1005.29 1004.68 1004.03 1003.46 1003.04 1002.83 1002.85 1003.07 1003.46 1003.94 1004.46 1004.97 1005.43 1005.86 1006.26 1006.66 1007.09 1007.55 1008.04 1008.52 1008.97 1009.35 1009.62 1009.77 1009.80 1009.74 1009.62 1009.48 1009.37 1009.32 1009.34 1009.45 1009.64 1009.91 1010.23 1010.60 1011.00 1011.40 1011.80 1012.16 1012.47 1012.70
1005.88 1006.14 1006.44 1006.70 1006.82 1006.73 1006.41 1005.87 1005.18 1004.43 1003.74 1003.21 1002.91 1002.85 1003.04 1003.41 1003.91 1004.44 1004.97 1005.44 1005.87 1006.27 1006.66 1007.08 1007.54 1008.05 1008.56 1009.06 1009.48 1009.81 1010.00 1010.07 1010.03 1009.92 1009.77 1009.65 1009.58 1009.58 1009.66 1009.82 1010.05 1010.32 1010.63 1010.96 1011.30 1011.63 1011.95 1012.25 1012.50
1005.79 1006.22 1006.70 1007.12 1007.38 1007.39 1007.11 1006.58 1005.84 1005.02 1004.25 1003.63 1003.25 1003.14 1003.30 1003.66 1004.16 1004.71 1005.25 1005.73 1006.16 1006.54 1006.92 1007.32 1007.78 1008.29 1008.83 1009.35 1009.83 1010.20 1010.45 1010.56 1010.55 1010.46 1010.33 1010.19 1010.10 1010.07 1010.11 1010.22 1010.38 1010.58 1010.80 1011.04 1011.29 1011.55 1011.82 1012.09 1012.34
1005.78 1006.34 1006.98 1007.55 1007.94 1008.06 1007.85 1007.34 1006.61 1005.77 1004.95 1004.30 1003.88 1003.76 1003.90 1004.27 1004.78 1005.34 1005.89 1006.37 1006.78 1007.14 1007.49 1007.86 1008.29 1008.79 1009.33 1009.88 1010.39 1010.80 1011.10 1011.26 1011.28 1011.21 1011.09 1010.95 1010.83 1010.76 1010.75 1010.80 1010.88 1010.99 1011.12 1011.26 1011.42 1011.59 1011.80 1012.03 1012.29
1005.88 1006.54 1007.28 1007.96 1008.45 1008.65 1008.52 1008.07 1007.39 1006.58 1005.79 1005.16 1004.78 1004.68 1004.85 1005.24 1005.77 1006.34 1006.88 1007.35 1007.73 1008.06 1008.36 1008.68 1009.07 1009.53 1010.05 1010.60 1011.11 1011.55 1011.88 1012.07 1012.13 1012.08 1011.96 1011.82 1011.68 1011.57 1011.51 1011.48 1011.49 1011.52 1011.57 1011.62 1011.69 1011.80 1011.95 1012.15 1012.39
1006.12 1006.80 1007.56 1008.27 1008.81 1009.07 1009.02 1008.65 1008.06 1007.36 1006.67 1006.14 1005.85 1005.83 1006.06 1006.51 1007.07 1007.65 1008.18 1008.62 1008.96 1009.23 1009.46 1009.71 1010.03 1010.43 1010.91 1011.42 1011.92 1012.36 1012.71 1012.91 1012.99 1012.96 1012.84 1012.69 1012.53 1012.39 1012.28 1012.21 1012.16 1012.13 1012.11 1012.11 1012.12 1012.18 1012.28 1012.45 1012.68
1006.51 1007.11 1007.80 1008.47 1008.98 1009.27 1009.27 1009.01 1008.55 1008.00 1007.48 1007.12 1006.97 1007.08 1007.42 1007.94 1008.54 1009.13 1009.65 1010.05 1010.33 1010.52 1010.67 1010.83 1011.07 1011.38 1011.78 1012.24 1012.71 1013.13 1013.46 1013.68 1013.76 1013.74 1013.63 1013.48 1013.31 1013.16 1013.03 1012.93 1012.85 1012.79 1012.74 1012.71 1012.70 1012.72 1012.80 1012.95 1013.15
1007.01 1007.44 1007.98 1008.51 1008.95 1009.21 1009.25 1009.08 1008.78 1008.42 1008.12 1007.97 1008.02 1008.30 1008.77 1009.37 1010.01 1010.61 1011.10 1011.46 1011.66 1011.77 1011.83 1011.90 1012.03 1012.25 1012.57 1012.96 1013.37 1013.76 1014.07 1014.28 1014.38 1014.37 1014.28 1014.14 1013.98 1013.83 1013.70 1013.60 1013.53 1013.47 1013.43 1013.40 1013.39 1013.42 1013.49 1013.62 1013.79
1007.60 1007.80 1008.11 1008.44 1008.74 1008.92 1008.96 1008.89 1008.73 1008.58 1008.51 1008.59 1008.85 1009.31 1009.91 1010.60 1011.28 1011.88 1012.34 1012.64 1012.78 1012.81 1012.78 1012.76 1012.81 1012.95 1013.19 1013.51 1013.86 1014.21 1014.51 1014.72 1014.82 1014.83 1014.77 1014.66 1014.53 1014.42 1014.32 1014.25 1014.21 1014.18 1014.17 1014.17 1014.19 1014.23 1014.30 1014.42 1014.56
1008.22 1008.16 1008.21 1008.31 1008.42 1008.49 1008.51 1008.49 1008.46 1008.49 1008.63 1008.93 1009.39 1010.00 1010.72 1011.48 1012.19 1012.78 1013.21 1013.46 1013.55 1013.52 1013.43 1013.35 1013.34 1013.42 1013.60 1013.87 1014.19 1014.51 1014.79 1015.01 1015.13 1015.18 1015.16 1015.10 1015.03 1014.96 1014.91 1014.89 1014.90 1014.92 1014.95 1014.99 1015.04 1015.10 1015.18 1015.28 1015.40
Thickness
5840 5841 5840 5831 5810 5800 5800 5813 5822 5820 5821 5830 5833 5828 5815 5806 5796 5783 5808 5820 5818 5814 5810 5807 5805 5805 5804 5805 5805 5804 5804 5804 5803 5802 5802 5802 5801 5799 5798 5796 5795 5793 5791 5790 5788 5787 5785 5783 5781
5849 5848 5838 5823 5803 5790 5797 5817 5817 5820 5829 5836 5834 5828 5816 5808 5813 5809 5814 5819 5819 5815 5810 5806 5804 5804 5803 5803 5803 5803 5803 5802 5801 5800 5800 5800 5799 5798 5797 5795 5793 5791 5790 5789 5787 5786 5784 5781 5780
5850 5852 5831 5819 5807 5801 5801 5819 5823 5830 5837 5834 5827 5824 5815 5807 5813 5813 5818 5822 5820 5815 5810 5805 5803 5803 5802 5801 5801 5800 5800 5800 5799 5798 5798 5797 5797 5796 5795 5793 5791 5790 5789 5787 5785 5784 5782 5780 5779
5850 5844 5834 5819 5811 5822 5822 5828 5834 5830 5832 5834 5827 5814 5814 5821 5819 5820 5824 5825 5819 5815 5811 5805 5803 5802 5801 5800 5799 5798 5798 5797 5797 5796 5796 5795 5795 5794 5793 5791 5790 5788 5787 5785 5783 5782 5780 5779 5778
5851 5832 5818 5816 5820 5831 5838 5841 5839 5828 5826 5829 5824 5807 5805 5820 5827 5826 5826 5825 5820 5816 5811 5806 5803 5801 5800 5799 5798 5797 5796 5796 5795 5795 5794 5794 5793 5792 5791 5790 5788 5786 5784 5783 5781 5780 5779 5779 5778
5839 5834 5815 5812 5823 5835 5841 5846 5841 5831 5828 5828 5822 5808 5805 5821 5823 5824 5827 5826 5823 5818 5812 5806 5803 5801 5799 5798 5797 5796 5796 5796 5795 5794 5793 5792 5791 5790 5789 5788 5786 5784 5782 5781 5780 5779 5779 5777 5777
5839 5833 5826 5827 5825 5828 5839 5848 5839 5831 5827 5829 5830 5810 5807 5819 5825 5828 5827 5826 5824 5820 5814 5809 5805 5802 5800 5798 5797 5796 5797 5796 5795 5793 5792 5791 5790 5789 5788 5787 5785 5783 5781 5780 5779 5778 5778 5777 5776
5863 5844 5832 5833 5827 5826 5843 5848 5845 5837 5829 5841 5838 5814 5806 5818 5829 5829 5826 5825 5823 5821 5817 5813 5809 5805 5802 5799 5797 5796 5795 5795 5794 5792 5791 5790 5790 5788 5787 5786 5785 5783 5782 5781 5779 5778 5777 5777 5777
5873 5839 5825 5832 5833 5834 5846 5842 5844 5849 5839 5838 5838 5829 5825 5829 5829 5824 5820 5819 5818 5818 5817 5815 5812 5808 5805 5803 5800 5796 5795 5793 5793 5792 5791 5791 5790 5789 5788 5787 5785 5784 5783 5782 5780 5779 5778 5778 5778
5863 5832 5833 5851 5853 5848 5849 5844 5844 5840 5829 5826 5827 5828 5831 5829 5825 5819 5815 5812 5812 5813 5816 5815 5813 5810 5808 5806 5802 5799 5797 5795 5794 5793 5792 5792 5791 5790 5789 5787 5786 5785 5783 5782 5781 5779 5779 5778 5779
5863 5845 5854 5861 5864 5861 5853 5850 5853 5839 5825 5825 5822 5823 5827 5826 5823 5820 5817 5815 5813 5815 5815 5815 5814 5811 5810 5807 5804 5803 5800 5798 5796 5795 5794 5793 5792 5791 5790 5788 5786 5786 5785 5784 5783 5781 5781 5781 5781
5863 5863 5867 5867 5870 5863 5856 5853 5848 5843 5837 5843 5839 5834 5830 5825 5823 5822 5819 5817 5816 5816 5815 5816 5814 5811 5810 5809 5807 5805 5802 5800 5798 5796 5795 5794 5793 5792 5792 5791 5790 5789 5789 5787 5786 5785 5785 5784 5784
5862 5864 5871 5874 5871 5866 5861 5853 5848 5844 5850 5850 5844 5837 5831 5828 5827 5827 5825 5822 5818 5815 5815 5815 5814 5811 5809 5808 5807 5806 5804 5802 5800 5798 5796 5795 5793 5793 5793 5792 5792 5792 5791 5789 5788 5787 5786 5786 5784
5866 5868 5870 5872 5870 5868 5856 5852 5848 5845 5853 5847 5841 5835 5834 5831 5829 5827 5824 5821 5818 5817 5816 5815 5814 5812 5810 5808 5806 5806 5805 5802 5801 5799 5796 5795 5794 5793 5792 5792 5793 5792 5792 5791 5789 5788 5787 5785 5784
5872 5860 5860 5866 5867 5866 5858 5836 5840 5852 5853 5844 5840 5837 5835 5834 5832 5828 5826 5823 5821 5819 5818 5816 5815 5813 5810 5809 5808 5807 5806 5804 5802 5800 5797 5796 5795 5794 5793 5793 5793 5793 5792 5791 5790 5788 5787 5785 5784
5858 5843 5833 5855 5867 5868 5849 5822 5844 5857 5850 5842 5841 5839 5835 5834 5834 5833 5831 5827 5825 5821 5818 5818 5819 5814 5811 5810 5809 5809 5807 5805 5803 5801 5798 5797 5796 5795 5794 5793 5793 5794 5793 5791 5789 5787 5785 5783 5782
5834 5824 5829 5846 5868 5867 5852 5833 5848 5860 5852 5844 5842 5840 5837 5835 5835 5836 5834 5830 5827 5824 5820 5818 5818 5815 5813 5811 5810 5809 5808 5806 5804 5802 5800 5798 5797 5796 5795 5794 5794 5794 5792 5791 5789 5786 5783 5781 5780
5825 5831 5837 5843 5861 5863 5849 5844 5852 5861 5856 5849 5846 5844 5840 5837 5837 5839 5837 5834 5831 5827 5823 5820 5818 5816 5814 5813 5810 5809 5808 5807 5805 5803 5801 5799 5799 5798 5796 5795 5794 5794 5791 5789 5787 5784 5783 5781 5780
5845 5842 5838 5849 5866 5859 5850 5848 5853 5860 5859 5853 5849 5846 5843 5842 5844 5843 5840 5837 5833 5828 5824 5820 5818 5816 5814 5812 5809 5806 5804 5805 5805 5804 5802 5801 5800 5799 5797 5796 5794 5793 5790 5788 5786 5784 5781 5780 5781
5846 5839 5840 5850 5865 5858 5850 5849 5858 5862 5859 5860 5855 5851 5848 5845 5843 5842 5841 5839 5834 5829 5825 5822 5819 5817 5815 5814 5812 5810 5808 5807 5806 5805 5803 5801 5800 5799 5799 5796 5794 5792 5790 5788 5786 5784 5780 5780 5781
5842 5840 5844 5845 5856 5862 5850 5837 5847 5858 5863 5864 5864 5860 5855 5851 5845 5843 5841 5839 5836 5831 5827 5825 5822 5820 5817 5816 5814 5812 5809 5806 5804 5802 5801 5802 5801 5799 5798 5797 5795 5793 5791 5788 5787 5785 5781 5777 5779
5836 5855 5855 5851 5839 5830 5838 5810 5830 5845 5851 5857 5862 5862 5858 5858 5853 5849 5845 5841 5839 5836 5833 5829 5825 5822 5819 5818 5814 5809 5804 5800 5802 5803 5802 5802 5802 5800 5798 5797 5796 5794 5792 5790 5788 5786 5784 5779 5775
5851 5864 5858 5849 5836 5827 5832 5817 5819 5839 5839 5850 5862 5865 5864 5863 5857 5853 5850 5846 5844 5842 5837 5833 5828 5823 5821 5818 5815 5810 5807 5806 5806 5805 5803 5801 5801 5800 5799 5797 5795 5793 5791 5790 5788 5786 5783 5780 5777
5865 5858 5850 5844 5828 5802 5820 5817 5809 5834 5841 5851 5862 5866 5866 5865 5862 5857 5855 5850 5846 5844 5839 5834 5827 5823 5821 5818 5815 5811 5808 5807 5804 5802 5800 5799 5799 5799 5798 5797 5795 5793 5791 5789 5787 5785 5782 5779 5777
5855 5833 5809 5797 5795 5799 5829 5825 5826 5854 5864 5864 5862 5865 5867 5867 5863 5857 5851 5847 5845 5843 5839 5834 5828 5822 5821 5818 5815 5813 5810 5808 5805 5802 5801 5799 5798 5797 5796 5796 5794 5792 5790 5788 5786 5783 5781 5778 5776
5844 5835 5806 5788 5788 5807 5826 5820 5841 5868 5874 5874 5873 5870 5867 5865 5863 5858 5854 5849 5845 5843 5840 5835 5829 5823 5821 5818 5815 5814 5811 5809 5807 5804 5803 5800 5799 5798 5797 5795 5793 5791 5789 5788 5785 5782 5780 5778 5775
5839 5839 5846 5823 5810 5802 5816 5828 5849 5868 5867 5867 5867 5866 5863 5862 5861 5858 5855 5852 5848 5845 5841 5837 5830 5824 5821 5819 5815 5813 5810 5808 5806 5804 5802 5801 5799 5798 5796 5794 5791 5789 5787 5786 5783 5780 5778 5776 5773
5857 5852 5837 5820 5797 5787 5801 5809 5823 5840 5849 5856 5858 5859 5859 5861 5861 5859 5855 5852 5850 5847 5843 5839 5832 5826 5822 5819 5815 5812 5809 5807 5805 5803 5800 5798 5797 5796 5794 5791 5789 5787 5785 5783 5781 5778 5777 5774 5771
5843 5841 5836 5825 5822 5798 5784 5801 5844 5847 5850 5850 5854 5856 5857 5858 5858 5857 5855 5852 5851 5847 5842 5836 5831 5825 5821 5818 5814 5811 5808 5806 5804 5801 5799 5797 5795 5793 5791 5789 5787 5784 5782 5781 5778 5776 5774 5771 5768
5848 5842 5836 5814 5809 5817 5806 5805 5854 5854 5856 5853 5852 5855 5856 5856 5856 5855 5853 5849 5845 5841 5838 5833 5829 5824 5820 5817 5813 5810 5807 5804 5801 5799 5797 5795 5792 5790 5788 5786 5784 5782 5780 5779 5776 5773 5771 5768 5765